Probability
0 0 0 0 0 0 0 0 0 0 0 0 0 0 0 0 0 0 0 0 0 0 29 100 100 100 100 100 100 100 100 100 100 100 100 100 100 100 100 100 100 100 100 97 100 100 100 100 100
0 0 0 0 0 0 0 0 0 0 0 0 0 0 0 0 0 0 0 0 0 3 26 100 100 100 100 100 97 100 100 100 100 100 100 100 100 100 100 100 100 100 100 100 100 100 100 100 100
0 0 0 0 0 0 0 0 0 0 0 0 0 0 0 0 0 0 0 0 0 3 3 100 100 100 100 100 100 100 100 100 100 100 100 100 100 100 100 100 100 100 100 100 100 100 100 100 100
0 0 0 0 0 0 0 0 0 0 3 0 0 0 3 0 0 0 0 6 6 6 13 100 100 100 100 100 100 100 100 100 100 100 100 100 100 100 100 100 100 100 100 100 97 100 100 100 100
0 0 0 0 0 0 0 0 0 3 3 0 0 3 10 32 10 0 0 6 3 3 19 100 100 100 100 100 100 100 100 100 100 100 100 100 100 100 100 100 94 77 77 94 97 97 100 100 100
0 0 0 0 0 0 0 3 3 3 3 0 0 0 19 35 0 0 0 0 0 3 48 90 100 100 100 100 100 100 100 100 100 100 100 100 100 100 100 97 90 81 61 68 71 71 97 100 100
0 0 0 0 0 0 0 0 3 3 6 3 0 3 32 13 0 0 0 0 0 29 29 65 90 100 100 100 100 100 100 100 100 100 100 100 97 94 97 100 87 52 68 87 94 65 68 100 100
0 0 0 0 0 0 0 0 0 0 10 10 10 13 45 29 6 13 6 13 32 42 39 58 61 74 84 94 100 100 100 100 100 97 94 87 45 29 26 74 77 42 45 61 74 90 100 100 100
0 0 0 0 0 0 0 0 0 3 3 16 23 26 52 71 74 45 16 26 48 45 61 42 45 35 23 16 94 100 90 90 77 68 52 45 0 0 0 29 23 3 32 58 87 94 100 100 100
0 0 0 0 0 0 0 0 0 0 0 3 13 32 87 97 84 35 0 0 6 16 45 35 32 42 26 23 26 0 0 0 0 0 0 0 0 0 0 0 13 48 84 90 100 100 100 100 100
0 0 0 0 0 0 0 0 0 0 0 3 19 71 100 97 87 35 3 0 0 0 23 32 39 39 19 3 0 0 0 0 0 0 0 0 0 0 0 0 0 0 16 13 19 42 35 55 65
0 0 0 0 0 0 0 0 0 0 0 0 32 90 100 94 81 35 10 0 0 6 6 10 26 29 6 3 0 0 0 0 0 0 0 0 0 0 0 0 0 0 0 0 0 0 0 0 6
0 0 0 0 0 0 0 0 0 0 0 16 52 90 97 87 65 23 6 0 0 0 0 6 6 13 10 0 0 0 0 0 0 0 0 0 0 0 0 0 0 0 0 0 0 0 0 0 0
0 0 0 0 0 0 0 6 0 0 16 32 52 71 90 87 58 19 0 0 0 0 0 3 0 0 3 0 0 0 0 0 0 0 0 0 0 0 0 0 0 0 0 0 0 0 0 0 0
0 0 0 0 0 0 3 3 6 10 26 35 29 58 77 74 52 19 0 0 0 0 0 0 0 0 3 0 3 3 0 0 0 0 0 0 0 0 0 0 0 0 0 0 0 0 0 0 0
0 0 0 0 0 0 0 0 0 3 29 26 23 35 58 61 42 19 3 0 0 0 3 3 13 6 6 16 3 3 0 0 0 0 0 0 0 0 0 0 0 0 0 0 0 0 0 0 0
0 0 0 0 0 0 0 0 0 3 32 32 26 19 32 16 13 16 10 0 3 6 13 19 39 39 29 10 3 0 0 0 0 0 0 0 0 0 0 0 0 0 0 0 0 0 0 0 0
0 0 0 0 0 0 0 0 0 6 39 39 32 23 26 13 13 6 19 16 23 16 32 48 61 52 19 0 0 0 0 0 0 0 0 0 0 0 0 0 0 0 0 0 0 0 0 0 0
0 0 0 0 0 0 0 0 0 6 39 58 42 29 23 10 13 23 52 55 42 48 55 65 65 52 10 0 0 0 0 0 0 0 0 0 0 0 0 0 0 0 0 0 0 0 0 0 0
0 0 0 0 0 0 0 0 0 13 26 35 35 23 23 13 16 39 48 74 81 68 65 58 48 39 16 13 0 0 0 0 0 0 0 0 0 3 3 0 0 0 0 0 0 0 0 0 0
0 0 0 0 0 0 0 0 3 3 3 6 10 6 3 13 13 39 68 87 77 65 39 19 16 13 10 3 0 0 0 0 0 3 0 0 3 0 3 0 0 0 0 0 0 0 0 0 0
0 0 0 0 0 0 0 0 0 0 0 0 0 0 0 6 6 26 74 71 48 26 10 3 3 3 3 0 0 0 0 0 0 0 0 0 0 0 0 0 0 0 0 0 0 0 0 0 0
0 0 0 0 0 0 0 0 0 0 0 0 0 0 0 6 10 39 61 45 13 3 3 0 0 0 0 0 0 0 0 0 0 0 0 0 0 0 0 0 0 0 0 0 0 0 0 0 0
0 0 0 0 0 0 0 0 0 0 0 0 0 0 0 3 6 6 19 13 6 0 0 0 0 0 0 0 0 0 0 0 0 0 0 0 0 0 0 0 0 0 0 0 0 0 0 0 0
0 0 0 0 0 0 0 0 0 0 0 0 0 0 3 6 6 13 23 19 6 0 0 0 0 0 0 0 0 0 0 0 0 0 0 0 0 0 0 0 0 0 0 0 0 0 0 0 0
0 0 0 0 0 0 0 0 0 0 0 0 0 0 0 0 0 0 0 0 0 0 0 0 0 0 0 0 0 0 0 0 0 0 0 0 0 0 0 0 0 0 0 0 0 0 0 0 0
0 0 0 0 0 0 0 0 0 0 0 0 0 0 0 0 0 0 0 0 0 0 0 0 0 0 0 0 0 0 0 0 0 0 0 0 0 0 0 0 0 0 0 0 0 0 0 0 0
0 0 0 0 0 0 0 0 0 0 0 0 0 0 0 0 0 0 0 0 0 0 0 0 0 0 0 0 0 0 0 0 0 0 0 0 0 0 0 0 0 0 0 0 0 0 0 0 0
0 0 0 0 0 0 0 0 0 0 0 0 0 0 0 0 0 0 0 0 0 0 0 0 0 0 0 0 0 0 0 0 0 0 0 0 0 0 0 0 0 0 0 0 0 0 0 0 0
0 0 0 0 0 0 0 0 0 0 0 0 0 0 0 0 0 0 0 0 0 0 0 0 0 0 0 0 0 0 0 0 0 0 0 0 0 0 0 0 0 0 0 0 0 0 0 0 0
Height
5899 5901 5903 5905 5906 5906 5905 5906 5907 5910 5912 5914 5915 5915 5916 5917 5918 5921 5919 5918 5919 5920 5919 5918 5917 5917 5916 5915 5915 5916 5917 5917 5918 5918 5918 5918 5917 5917 5916 5916 5915 5915 5914 5914 5913 5912 5911 5911 5910
5899 5900 5903 5905 5906 5906 5906 5906 5908 5911 5913 5915 5916 5917 5917 5918 5919 5920 5919 5920 5922 5922 5922 5921 5920 5919 5918 5918 5918 5918 5919 5919 5919 5920 5919 5919 5919 5919 5918 5917 5916 5916 5915 5914 5914 5912 5911 5911 5910
5899 5900 5903 5904 5904 5905 5907 5908 5909 5911 5913 5915 5917 5918 5919 5920 5920 5921 5922 5922 5924 5924 5924 5923 5922 5921 5921 5921 5921 5921 5921 5921 5921 5921 5921 5920 5920 5920 5919 5919 5918 5917 5916 5915 5914 5913 5912 5911 5910
5899 5901 5903 5904 5904 5905 5907 5909 5910 5911 5913 5915 5917 5919 5920 5922 5922 5923 5924 5924 5926 5926 5926 5925 5925 5924 5923 5923 5923 5923 5923 5923 5922 5922 5922 5922 5921 5921 5920 5919 5918 5917 5917 5916 5915 5914 5913 5911 5910
5898 5899 5901 5902 5904 5906 5907 5909 5910 5911 5913 5915 5918 5920 5921 5923 5923 5924 5925 5926 5927 5928 5927 5927 5926 5925 5925 5925 5925 5926 5925 5925 5924 5923 5923 5923 5922 5922 5921 5919 5918 5917 5917 5916 5915 5914 5913 5912 5911
5897 5898 5900 5901 5902 5905 5907 5908 5910 5911 5913 5915 5917 5919 5921 5923 5924 5925 5926 5927 5928 5928 5928 5928 5928 5927 5926 5926 5926 5926 5926 5926 5925 5924 5924 5923 5922 5922 5921 5920 5919 5917 5916 5916 5915 5914 5913 5912 5911
5895 5896 5897 5898 5900 5904 5907 5909 5910 5911 5913 5915 5917 5919 5920 5922 5924 5925 5926 5927 5928 5928 5928 5928 5928 5928 5927 5927 5926 5926 5926 5925 5925 5924 5924 5923 5922 5921 5920 5920 5919 5918 5917 5916 5914 5914 5913 5912 5910
5891 5894 5894 5895 5898 5903 5906 5908 5909 5911 5912 5914 5916 5918 5920 5922 5923 5924 5925 5926 5926 5927 5927 5927 5927 5927 5926 5926 5926 5925 5925 5924 5924 5923 5923 5922 5921 5920 5919 5919 5918 5918 5917 5916 5914 5913 5912 5912 5910
5888 5891 5890 5891 5894 5899 5903 5906 5909 5910 5911 5912 5914 5917 5919 5921 5921 5922 5923 5924 5925 5925 5926 5926 5926 5926 5925 5924 5924 5924 5923 5922 5922 5921 5921 5920 5919 5918 5917 5917 5916 5916 5915 5914 5913 5912 5911 5911 5910
5885 5887 5887 5888 5891 5895 5899 5903 5906 5909 5910 5911 5913 5915 5916 5918 5919 5920 5921 5922 5923 5923 5924 5924 5924 5924 5923 5922 5922 5921 5921 5920 5919 5919 5918 5918 5917 5916 5915 5914 5914 5913 5913 5912 5911 5911 5910 5909 5908
5880 5882 5883 5884 5887 5891 5894 5898 5903 5907 5909 5911 5912 5913 5914 5915 5917 5918 5919 5919 5920 5921 5921 5921 5921 5921 5920 5920 5919 5919 5918 5917 5917 5916 5915 5915 5914 5913 5912 5911 5911 5910 5910 5909 5909 5908 5908 5907 5907
5876 5878 5879 5880 5883 5886 5890 5893 5898 5902 5906 5908 5911 5912 5913 5913 5914 5915 5916 5917 5918 5918 5918 5918 5917 5917 5917 5917 5917 5916 5915 5915 5914 5913 5913 5912 5911 5910 5910 5909 5909 5908 5907 5906 5906 5905 5905 5904 5904
5870 5872 5874 5875 5878 5882 5885 5889 5892 5896 5900 5904 5908 5910 5911 5911 5912 5912 5914 5915 5915 5915 5915 5915 5914 5914 5914 5913 5913 5913 5912 5912 5911 5910 5909 5909 5909 5908 5907 5907 5906 5905 5904 5903 5903 5902 5901 5901 5900
5863 5866 5868 5870 5873 5877 5881 5883 5887 5891 5895 5899 5904 5907 5908 5909 5909 5909 5910 5911 5911 5911 5911 5911 5911 5911 5910 5910 5909 5909 5909 5908 5908 5907 5906 5905 5905 5905 5904 5904 5903 5902 5901 5900 5899 5899 5898 5897 5897
5859 5862 5864 5865 5867 5870 5874 5878 5882 5885 5889 5893 5898 5901 5904 5905 5906 5906 5906 5907 5907 5907 5907 5907 5907 5907 5907 5906 5906 5905 5905 5904 5903 5903 5902 5901 5901 5900 5900 5900 5899 5898 5898 5897 5896 5895 5894 5894 5893
5854 5857 5860 5861 5862 5864 5869 5873 5877 5880 5883 5887 5891 5894 5897 5900 5901 5901 5901 5902 5902 5902 5902 5903 5903 5902 5902 5901 5901 5900 5900 5899 5898 5898 5897 5897 5896 5896 5896 5895 5895 5894 5894 5893 5892 5891 5891 5890 5889
5849 5852 5854 5857 5857 5859 5862 5867 5871 5874 5877 5881 5884 5886 5889 5892 5895 5896 5896 5896 5896 5896 5897 5897 5897 5896 5896 5895 5895 5895 5894 5894 5893 5892 5892 5892 5892 5892 5892 5891 5891 5890 5889 5889 5888 5888 5887 5886 5885
5844 5846 5848 5850 5851 5854 5856 5861 5866 5868 5871 5874 5877 5879 5882 5885 5887 5888 5889 5890 5890 5891 5891 5891 5890 5889 5888 5888 5888 5888 5887 5887 5887 5887 5887 5887 5887 5887 5887 5887 5886 5886 5885 5884 5884 5883 5883 5882 5880
5838 5841 5844 5846 5847 5850 5852 5856 5859 5862 5864 5867 5870 5872 5874 5876 5878 5881 5882 5883 5884 5885 5884 5883 5882 5881 5881 5881 5881 5880 5880 5880 5881 5881 5881 5881 5882 5882 5881 5881 5881 5880 5879 5879 5879 5878 5877 5877 5875
5833 5837 5839 5841 5843 5845 5848 5850 5852 5854 5857 5859 5861 5864 5866 5867 5870 5872 5874 5875 5876 5876 5876 5874 5873 5873 5873 5873 5872 5872 5871 5872 5873 5874 5873 5874 5874 5875 5875 5874 5874 5873 5873 5873 5873 5872 5871 5871 5871
5827 5831 5834 5835 5837 5839 5842 5844 5846 5847 5849 5852 5854 5857 5859 5861 5862 5864 5865 5866 5867 5867 5866 5865 5865 5864 5864 5864 5863 5863 5863 5864 5865 5865 5866 5866 5865 5865 5866 5868 5867 5867 5866 5866 5866 5866 5865 5864 5865
5821 5824 5826 5828 5830 5832 5835 5836 5839 5840 5842 5844 5846 5849 5851 5852 5854 5855 5856 5857 5857 5858 5858 5857 5856 5856 5855 5854 5853 5853 5854 5855 5856 5857 5857 5857 5857 5857 5858 5860 5860 5860 5860 5860 5859 5859 5859 5858 5858
5814 5816 5819 5821 5823 5824 5826 5827 5831 5832 5834 5836 5838 5840 5842 5844 5845 5846 5847 5847 5848 5848 5848 5848 5847 5846 5845 5844 5843 5843 5844 5846 5847 5848 5849 5850 5851 5851 5851 5852 5852 5852 5853 5853 5853 5853 5852 5852 5851
5805 5808 5810 5812 5815 5817 5819 5819 5821 5822 5824 5826 5829 5831 5833 5834 5835 5836 5837 5837 5838 5838 5838 5838 5838 5837 5836 5835 5835 5835 5835 5837 5839 5840 5841 5842 5843 5843 5843 5843 5844 5845 5845 5845 5845 5845 5845 5845 5845
5798 5800 5801 5802 5805 5808 5810 5811 5811 5813 5814 5816 5819 5821 5823 5825 5826 5827 5827 5827 5828 5828 5828 5828 5828 5828 5828 5827 5827 5827 5828 5830 5831 5832 5833 5834 5834 5835 5835 5836 5836 5837 5837 5837 5837 5838 5837 5837 5837
5791 5793 5794 5795 5796 5799 5800 5801 5802 5804 5805 5807 5809 5811 5814 5815 5816 5817 5818 5818 5818 5818 5818 5819 5819 5818 5818 5819 5820 5820 5822 5823 5824 5825 5825 5826 5826 5827 5827 5828 5828 5828 5829 5828 5828 5829 5829 5829 5829
5785 5786 5787 5787 5787 5789 5791 5793 5794 5796 5797 5799 5801 5803 5805 5806 5808 5808 5809 5809 5809 5810 5810 5810 5810 5810 5810 5811 5812 5814 5815 5816 5817 5817 5817 5818 5818 5819 5819 5820 5820 5820 5820 5819 5819 5819 5819 5819 5819
5780 5780 5780 5780 5780 5781 5782 5784 5787 5789 5790 5792 5793 5795 5797 5798 5799 5800 5801 5801 5801 5802 5802 5802 5801 5802 5803 5804 5806 5807 5808 5809 5809 5809 5809 5810 5810 5810 5811 5811 5811 5811 5811 5811 5810 5810 5810 5810 5810
5773 5774 5773 5773 5773 5774 5774 5779 5781 5782 5784 5785 5786 5787 5788 5790 5791 5792 5793 5793 5794 5794 5794 5794 5794 5795 5796 5797 5799 5800 5801 5802 5802 5802 5802 5801 5801 5801 5802 5802 5802 5802 5802 5802 5802 5801 5801 5801 5801
5766 5766 5766 5766 5766 5766 5767 5772 5773 5774 5776 5777 5778 5779 5780 5782 5783 5784 5785 5786 5786 5786 5787 5787 5787 5788 5789 5791 5792 5793 5793 5793 5793 5793 5793 5793 5793 5793 5794 5794 5794 5794 5793 5793 5793 5792 5792 5792 5792
Wind_Speed
14 16 16 14 12 11 10 8 8 10 11 10 10 11 12 13 14 14 14 15 15 14 15 16 17 18 18 19 18 17 16 16 15 14 14 14 13 13 13 12 12 11 10 9 9 9 9 9 7
13 16 18 17 14 13 13 11 8 8 11 13 13 13 12 13 13 12 12 13 11 10 11 14 16 16 17 18 18 17 16 15 14 13 13 13 13 13 13 12 11 9 9 9 9 8 7 7 6
12 16 19 19 17 16 15 13 9 7 9 13 16 14 12 12 11 10 10 10 8 7 8 10 12 14 15 16 16 16 16 15 14 13 12 12 12 12 12 12 11 9 8 9 10 9 7 5 5
13 16 19 19 19 18 16 13 10 8 9 10 12 12 11 10 9 7 6 6 5 5 6 8 9 11 12 13 13 13 13 13 13 13 12 12 11 11 12 12 11 10 8 7 8 9 8 6 4
14 15 18 20 21 19 17 14 11 10 10 8 8 8 8 8 7 5 3 2 1 1 3 6 8 10 11 11 10 10 10 10 10 10 10 10 10 10 10 10 11 10 8 6 5 6 6 7 6
18 16 18 20 22 20 17 13 13 13 11 9 8 8 8 7 5 4 3 3 4 4 5 6 7 8 10 10 10 9 8 8 7 7 8 8 8 8 8 8 8 8 7 6 4 5 5 5 5
21 20 19 22 23 21 18 15 13 14 12 11 9 8 8 6 5 4 4 4 5 6 7 8 9 10 10 10 10 10 9 9 8 7 7 8 8 8 7 7 7 8 7 7 5 5 5 5 4
23 23 23 26 25 23 21 17 15 14 13 12 11 9 8 7 6 5 4 4 6 8 9 10 11 12 12 13 13 13 12 12 11 10 9 9 10 9 9 8 8 8 8 8 7 6 7 7 6
24 25 27 29 28 26 24 22 18 16 15 14 13 12 11 10 9 8 6 7 8 10 12 13 14 14 15 15 15 15 15 14 13 13 12 12 12 11 10 9 9 9 9 9 8 8 8 9 9
26 28 31 33 31 29 27 26 23 20 18 16 15 15 15 15 14 13 12 11 12 13 14 15 16 16 17 17 17 17 16 15 14 14 13 13 13 12 12 11 10 10 10 10 9 9 10 11 11
27 30 33 35 34 32 31 29 26 23 20 17 15 16 18 18 17 17 17 16 16 16 17 17 16 16 18 18 18 18 17 15 14 13 12 11 11 12 12 12 11 12 12 12 12 12 12 12 12
29 31 35 38 37 36 34 32 29 27 24 20 16 16 18 19 20 19 19 20 19 19 19 19 17 17 19 20 21 20 17 15 13 12 12 12 12 13 12 12 12 13 13 13 14 14 15 14 14
32 34 38 40 40 39 38 36 34 31 28 24 18 16 17 19 20 20 20 20 21 22 22 20 19 19 21 22 22 21 18 16 15 15 15 15 15 15 15 14 14 14 15 15 15 16 16 16 16
35 36 40 41 42 42 41 40 37 35 32 27 22 18 17 19 20 21 22 23 23 23 21 20 19 20 22 23 23 22 20 19 19 18 19 19 18 17 17 17 17 17 16 16 15 15 15 15 16
35 37 40 43 45 44 43 42 40 37 35 31 27 23 20 21 22 23 24 25 25 24 22 22 22 24 25 24 24 23 23 22 22 22 21 20 19 18 17 18 19 19 19 18 17 17 16 16 16
32 36 40 43 46 46 44 43 41 39 37 34 32 29 26 24 23 25 26 26 26 25 25 26 26 27 29 28 27 25 25 25 24 24 22 21 20 19 18 19 20 20 21 20 20 19 18 18 18
30 33 37 42 45 47 46 44 42 40 39 37 35 33 31 29 26 26 28 28 29 29 29 29 30 31 32 32 31 30 28 27 25 23 23 24 23 22 21 21 21 21 21 20 20 20 21 21 21
29 30 33 39 44 46 47 45 43 43 41 40 38 36 34 30 26 26 28 30 31 31 32 32 33 35 35 35 35 34 32 30 28 26 26 26 27 26 24 23 23 23 22 21 22 24 25 24 23
29 31 33 35 39 42 43 42 41 41 41 40 37 35 32 29 27 26 28 30 31 33 34 36 37 38 37 36 37 38 37 34 32 31 30 30 30 29 27 26 25 25 24 23 23 25 26 26 24
28 29 30 32 34 36 37 37 37 37 37 36 36 35 34 33 31 30 30 31 32 34 36 38 39 38 38 38 39 39 39 37 35 33 33 33 33 33 31 28 27 27 27 26 25 25 25 25 24
29 28 29 31 32 33 34 34 34 34 34 35 34 34 34 33 32 32 31 31 32 34 37 39 40 39 39 39 40 41 40 39 37 36 35 35 35 36 33 30 29 29 28 27 26 26 25 25 25
32 31 31 31 32 32 33 35 36 36 36 35 34 33 31 30 29 29 30 30 32 35 37 40 41 42 42 42 43 43 41 39 38 37 36 35 33 31 30 30 30 29 29 28 27 27 26 27 28
34 35 35 36 36 36 37 39 39 40 40 39 36 34 31 30 29 31 32 32 33 33 36 39 41 44 44 43 42 41 39 38 37 36 36 36 31 27 27 28 29 29 29 28 28 29 29 30 30
37 38 39 39 40 41 41 42 43 42 42 42 39 36 33 32 33 34 36 36 36 36 37 38 40 42 43 42 39 39 36 35 36 36 37 35 30 28 27 29 30 30 30 30 31 32 32 33 33
37 37 37 38 38 39 39 42 45 43 43 42 40 37 35 34 35 36 37 39 40 40 40 39 40 41 40 39 37 37 37 37 37 36 35 33 31 29 29 31 32 32 32 34 34 35 35 34 34
32 32 32 33 33 32 33 37 39 39 39 39 39 38 37 36 36 37 38 39 39 38 38 38 39 40 38 35 34 34 35 36 35 35 35 33 33 32 32 33 34 35 36 37 37 36 35 34 34
26 28 29 31 31 31 32 32 33 32 32 33 34 34 35 35 34 34 33 32 31 32 33 36 36 34 32 30 29 29 30 30 31 31 32 32 32 32 34 36 37 37 37 36 35 34 33 33 32
19 21 25 29 31 31 31 30 30 29 29 29 29 30 31 31 31 31 29 28 27 28 29 30 30 31 31 28 27 27 27 28 29 30 30 31 31 31 32 33 33 33 33 33 33 33 32 32 32
22 22 24 27 30 31 32 31 28 28 30 30 30 31 31 31 32 32 32 31 30 29 28 27 27 25 25 24 25 26 26 28 29 30 30 30 30 30 31 30 30 31 31 31 31 31 31 31 32
28 28 28 29 29 31 32 33 29 28 28 28 29 29 29 29 29 29 29 29 27 26 24 23 21 21 21 22 24 27 28 30 31 32 32 32 31 31 31 30 30 30 30 29 29 29 30 30 30
Wind_Direction
205 200 198 196 199 208 207 199 170 150 158 163 157 142 131 122 114 107 100 85 76 75 75 75 75 75 75 75 74 73 76 76 72 68 63 60 57 54 53 52 51 51 50 53 59 59 55 49 47
207 203 202 201 201 209 216 216 203 166 161 169 171 163 150 136 124 110 103 91 76 69 71 71 71 70 70 70 70 68 67 66 65 62 57 54 53 49 44 43 46 49 50 50 53 56 59 57 51
207 206 204 203 203 210 218 223 222 193 172 173 175 171 159 145 133 119 110 98 82 65 59 60 63 63 63 65 67 66 65 63 60 57 53 48 46 42 37 33 35 40 46 47 46 46 47 54 56
208 207 208 209 208 209 214 221 222 210 192 181 178 172 164 157 148 136 126 110 91 70 60 51 48 50 51 52 57 61 63 62 60 57 54 50 44 39 35 31 29 30 35 41 43 41 38 34 33
213 211 210 212 214 212 210 213 217 212 200 193 189 189 178 167 163 166 173 159 137 42 37 32 27 30 31 30 31 36 44 50 55 57 55 51 44 38 34 31 28 29 32 34 36 37 37 32 20
216 217 217 217 219 215 209 205 210 212 204 199 202 204 191 179 182 198 226 251 273 295 319 339 350 358 5 6 5 5 9 17 24 33 38 36 31 27 24 21 20 21 22 21 17 16 21 24 15
217 216 217 222 225 218 210 203 205 209 207 207 207 204 198 195 198 216 241 267 284 294 307 321 327 331 335 337 337 336 334 333 336 346 0 7 5 360 356 354 357 1 1 358 353 349 351 354 354
220 217 217 226 229 222 215 213 215 213 208 209 209 206 204 211 220 235 247 270 286 295 307 317 320 319 319 320 319 317 313 308 307 312 322 331 335 335 331 330 333 337 339 335 329 324 325 326 326
223 217 217 227 231 228 224 222 222 220 213 205 203 210 213 225 236 246 261 280 293 300 306 312 313 312 311 311 310 309 306 299 294 295 300 308 314 316 314 312 314 317 320 319 313 310 313 315 316
224 218 218 228 233 234 232 229 228 226 217 207 208 218 221 227 239 248 261 280 295 304 304 304 304 306 307 307 307 306 304 298 291 287 286 292 300 304 304 304 303 303 306 308 304 299 303 306 309
223 218 221 229 234 236 237 237 236 234 228 219 217 224 231 235 243 252 262 276 290 298 301 298 295 298 303 304 304 302 300 296 292 287 283 284 293 300 301 300 298 297 298 301 301 299 298 302 305
222 217 222 229 234 237 239 241 242 239 237 234 230 232 239 242 245 252 260 271 281 288 291 289 288 292 298 301 302 299 297 292 285 282 279 280 288 293 293 294 293 293 293 294 295 295 296 298 302
220 215 219 228 233 237 241 243 245 247 248 247 244 241 239 242 247 251 256 264 272 278 282 281 283 287 295 298 298 295 293 288 280 273 274 277 280 282 284 286 286 287 289 292 294 295 295 295 298
219 216 220 226 233 237 241 245 248 251 255 256 255 249 243 246 251 254 256 259 263 267 270 271 275 282 288 292 293 291 288 285 279 272 272 274 274 277 282 286 287 287 287 288 288 292 296 298 300
221 218 220 224 230 235 239 244 249 252 256 259 260 257 253 250 250 252 252 253 256 258 260 263 270 277 282 285 288 288 287 284 280 276 275 276 276 277 281 285 287 288 288 287 287 290 295 298 300
225 221 220 224 229 234 239 242 247 252 256 260 262 263 261 255 250 249 250 250 251 252 256 262 269 274 277 279 282 285 286 285 281 278 275 274 273 273 275 278 282 286 287 287 288 289 291 293 294
225 223 221 224 229 234 239 242 246 251 255 259 262 264 264 262 257 251 247 248 249 250 255 262 268 272 275 276 278 281 283 283 281 277 273 270 268 266 267 271 276 280 283 285 288 290 290 290 290
227 224 223 225 230 235 241 244 247 251 255 259 262 265 266 265 257 248 245 246 248 251 255 261 265 268 269 271 273 275 278 279 279 277 272 270 266 262 262 265 271 275 278 282 288 292 291 288 287
231 229 228 229 232 236 242 246 249 252 255 258 260 262 262 260 254 248 244 245 247 251 255 258 260 262 264 266 268 270 272 275 278 278 272 269 266 263 262 265 269 273 276 280 287 293 293 289 287
238 237 236 237 238 239 242 245 248 250 252 253 254 254 255 256 256 251 246 245 246 248 250 252 255 258 260 262 265 268 269 269 273 274 273 271 267 261 259 264 270 274 278 282 288 293 294 292 291
243 243 241 242 241 241 241 242 245 247 250 252 254 255 257 258 259 257 254 250 248 247 248 250 253 256 258 260 263 265 267 268 270 271 273 275 270 259 252 260 268 272 276 281 287 292 292 289 290
245 245 244 244 245 246 245 246 244 247 250 253 255 255 256 256 255 254 254 252 251 251 252 253 255 257 258 259 259 262 263 264 267 270 271 271 267 257 250 258 267 270 274 278 284 287 288 287 288
245 247 247 247 248 249 251 253 253 254 255 256 256 256 256 255 254 255 258 260 259 257 257 258 259 258 257 256 256 258 260 262 266 269 271 269 262 254 255 263 268 269 271 275 280 283 284 285 287
245 246 248 249 249 251 252 255 258 258 259 259 258 256 255 255 256 258 260 262 263 262 261 262 262 260 256 254 255 257 259 263 266 266 266 264 261 258 259 264 267 268 271 275 278 281 282 283 284
247 248 250 251 251 254 253 253 256 256 256 257 258 257 255 255 257 259 261 264 265 263 262 261 260 260 257 256 258 259 261 264 267 268 266 265 263 260 259 262 266 269 273 277 279 281 281 280 280
247 249 253 256 257 255 252 251 252 253 252 252 253 254 256 258 260 262 264 265 263 261 259 259 260 261 260 260 262 263 264 264 268 267 269 270 268 264 261 262 266 271 275 278 280 281 280 279 277
247 248 252 256 258 256 252 251 251 251 251 251 250 251 253 255 257 260 262 264 263 261 261 262 263 264 262 264 266 267 265 265 266 268 268 268 268 266 265 266 269 272 276 279 281 280 279 277 275
252 250 251 252 256 258 257 253 251 251 252 252 252 252 252 253 254 255 257 261 263 265 269 268 268 267 264 264 262 261 261 263 264 266 267 269 270 271 272 272 272 273 275 277 278 277 276 276 274
264 262 261 259 257 258 260 258 256 255 253 254 254 254 254 254 254 254 257 262 266 268 269 269 268 265 262 257 256 257 259 262 265 268 269 271 272 272 272 272 272 273 273 274 274 275 275 274 271
267 265 262 260 259 259 260 261 259 258 256 254 254 254 255 255 254 256 258 262 265 268 269 267 264 259 256 257 262 264 266 267 269 269 269 269 270 271 271 271 272 272 273 273 273 274 275 274 269